TimePST,TemperatureF,Dew PointF,Humidity,Sea Level PressureIn,VisibilityMPH,Wind Direction,Wind SpeedMPH,Gust SpeedMPH,PrecipitationIn,Events,Conditions,WindDirDegrees,DateUTC
12:52 AM,52.0,-0.9,11,30.09,-9999.0,ENE,10.4,-,N/A,,Unknown,70,2012-11-13 08:52:00
1:52 AM,43.0,3.9,20,30.08,-9999.0,NE,8.1,-,N/A,,Unknown,40,2012-11-13 09:52:00
2:52 AM,50.0,1.9,14,30.05,-9999.0,East,10.4,-,N/A,,Unknown,80,2012-11-13 10:52:00
3:52 AM,55.0,-2.9,9,30.04,-9999.0,Calm,Calm,-,N/A,,Unknown,0,2012-11-13 11:52:00
4:52 AM,54.0,-4.0,9,30.05,-9999.0,Variable,5.8,-,N/A,,Unknown,0,2012-11-13 12:52:00
5:52 AM,54.0,-2.9,10,30.05,-9999.0,ENE,18.4,29.9,N/A,,Unknown,60,2012-11-13 13:52:00
6:52 AM,53.1,-2.0,10,30.07,-9999.0,East,8.1,-,N/A,,Unknown,80,2012-11-13 14:52:00
7:52 AM,61.0,-4.0,7,30.07,-9999.0,Variable,4.6,-,N/A,,Unknown,0,2012-11-13 15:52:00
8:52 AM,66.0,-5.1,6,30.05,-9999.0,ENE,10.4,24.2,N/A,,Unknown,60,2012-11-13 16:52:00
9:52 AM,66.9,-4.0,6,30.05,-9999.0,ENE,16.1,23.0,N/A,,Unknown,60,2012-11-13 17:52:00
10:52 AM,68.0,-5.1,5,30.05,-9999.0,East,20.7,26.5,N/A,,Unknown,80,2012-11-13 18:52:00
11:52 AM,70.0,-5.1,5,30.04,-9999.0,East,16.1,25.3,N/A,,Unknown,90,2012-11-13 19:52:00
12:52 PM,70.0,-4.0,5,30.01,-9999.0,ENE,18.4,25.3,N/A,,Unknown,70,2012-11-13 20:52:00
1:52 PM,71.1,-4.0,5,30.00,-9999.0,ENE,20.7,-,N/A,,Unknown,60,2012-11-13 21:52:00
2:52 PM,70.0,-6.0,5,29.98,-9999.0,ENE,21.9,26.5,N/A,,Unknown,70,2012-11-13 22:52:00
3:52 PM,69.1,-8.0,4,29.98,-9999.0,ENE,13.8,21.9,N/A,,Unknown,70,2012-11-13 23:52:00
4:52 PM,61.0,-0.9,8,29.99,-9999.0,ENE,6.9,-,N/A,,Unknown,70,2012-11-14 00:52:00
5:52 PM,60.1,-2.0,8,30.00,-9999.0,East,9.2,-,N/A,,Unknown,80,2012-11-14 01:52:00
6:52 PM,57.9,1.9,10,30.01,-9999.0,NE,5.8,-,N/A,,Unknown,50,2012-11-14 02:52:00
7:52 PM,60.1,1.9,10,30.00,-9999.0,NNE,6.9,-,N/A,,Unknown,30,2012-11-14 03:52:00
8:52 PM,60.1,3.0,10,30.00,-9999.0,NE,5.8,-,N/A,,Unknown,40,2012-11-14 04:52:00
9:52 PM,59.0,3.0,11,30.01,-9999.0,ENE,5.8,-,N/A,,Unknown,70,2012-11-14 05:52:00
10:52 PM,57.0,3.9,12,30.02,-9999.0,East,6.9,-,N/A,,Unknown,80,2012-11-14 06:52:00
11:52 PM,46.9,12.0,24,30.04,-9999.0,NNE,3.5,-,N/A,,Unknown,20,2012-11-14 07:52:00